EW6028 Weather Reports


time (UTC)temp
F
wind
direction
speed
knots
gust
knots
rain 1hr
in
rain 24hr
in
rain mn
in
humidity
%
barometer
mb
20260507091522 65 182 2.6 6.1 0.00 0.31 0.31 73 1015.9
20260507090018 65 294 0.9 6.1 0.00 0.31 0.31 81 1015.9
20260507084538 64 187 2.6 6.1 0.00 0.31 0.31 79 1016.1
20260507083022 63 173 3.5 7.0 0.00 0.31 0.31 80 1016.2
20260507081512 63 175 0.9 5.2 0.00 0.31 0.31 82 1016.1
20260507080008 61 144 0.0 1.7 0.00 0.31 0.31 87 1016.1
20260507074507 60 132 0.0 6.1 0.00 0.31 0.31 88 1016.1
20260507073004 60 186 0.0 4.3 0.00 0.31 0.31 89 1016.0
20260507071502 59 187 0.0 4.3 0.00 0.31 0.31 90 1016.0
20260507070108 59 132 0.0 5.2 0.00 0.31 0.31 90 1015.8
20260507064602 59 128 0.9 4.3 0.00 0.31 0.31 90 1015.8
20260507063057 58 130 0.0 0.0 0.00 0.31 0.31 91 1015.7
20260507061555 58 173 0.0 4.3 0.00 0.31 0.31 91 1015.7
20260507060053 58 123 0.0 4.3 0.00 0.31 0.31 92 1015.5
20260507054552 57 142 0.0 3.5 0.00 0.31 0.31 92 1015.6
20260507053052 57 173 0.0 0.9 0.00 0.31 0.31 93 1015.6
20260507051549 57 175 0.0 0.9 0.00 0.31 0.31 93 1015.7
20260507050103 57 174 0.0 0.0 0.00 0.31 0.31 93 1015.5
20260507044551 57 172 0.0 2.6 0.00 0.31 0.31 93 1015.3
20260507043041 57 174 0.0 0.0 0.00 0.31 0.31 93 1015.1
20260507041544 57 174 0.0 0.0 0.00 0.31 0.31 93 1015.0
20260507040038 57 174 0.0 2.6 0.00 0.31 0.31 93 1014.8
20260507034541 57 293 0.0 1.7 0.00 0.32 0.31 93 1014.7
20260507033041 57 293 0.9 5.2 0.00 0.32 0.31 94 1014.7
20260507031536 57 114 0.0 6.1 0.00 0.32 0.31 94 1014.3
20260507030037 57 124 2.6 6.1 0.00 0.32 0.31 94 1014.5
20260507024542 57 121 1.7 6.1 0.00 0.35 0.31 94 1014.5
20260507023034 57 128 1.7 6.1 0.00 0.35 0.31 93 1014.4
20260507021546 57 130 1.7 7.0 0.01 0.35 0.31 94 1014.4
20260507020032 57 123 0.9 7.0 0.02 0.35 0.31 94 1014.4
20260507014528 57 134 3.5 7.0 0.22 0.35 0.31 93 1014.4
20260507013033 58 123 0.0 0.0 0.25 0.35 0.31 93 1014.5
20260507011530 58 123 0.0 0.0 0.24 0.35 0.31 93 1014.5
20260507010034 58 130 1.7 3.5 0.23 0.33 0.28 92 1014.3
20260507004521 59 126 0.0 6.1 0.03 0.13 0.09 92 1014.3
20260507003015 0 0.0 0.0 0.00 0.10 0.06 1014.3
20260507001512 0 0.0 0.0 0.00 0.10 0.06 1014.3
20260507000006 0 0.0 0.0 0.00 0.10 0.06 1014.3
20260506234502 0 0.0 0.0 0.01 0.10 0.06 1014.2
20260506233100 0 0.0 0.0 0.06 0.10 0.06 1014.4
20260506231556 59 158 0.0 1.7 0.06 0.10 0.06 91 1014.4
20260506230058 59 158 0.0 4.3 0.06 0.10 0.06 91 1014.6
20260506224552 60 123 0.0 6.1 0.06 0.09 0.06 90 1014.6
20260506223057 60 136 0.0 5.2 0.00 0.04 0.00 90 1014.6
20260506221548 60 127 0.0 0.0 0.00 0.04 0.00 89 1014.6
20260506220045 60 134 0.0 7.0 0.00 0.04 0.00 88 1014.5
20260506214545 61 136 0.0 2.6 0.00 0.04 0.04 86 1014.4
20260506213044 61 190 0.0 7.8 0.00 0.04 0.04 85 1014.5
20260506211543 61 179 0.0 1.7 0.00 0.04 0.04 85 1014.5
20260506210043 62 183 0.0 0.0 0.00 0.04 0.04 84 1014.5
20260506204553 62 147 0.0 3.5 0.00 0.04 0.04 84 1014.4
20260506203042 61 138 0.9 3.5 0.00 0.04 0.04 84 1014.4
20260506201542 61 128 0.0 5.2 0.00 0.04 0.04 84 1014.2
20260506200048 62 146 0.0 5.2 0.00 0.04 0.04 83 1014.2
20260506194547 62 181 0.0 4.3 0.00 0.04 0.04 82 1014.3
20260506193040 62 184 0.9 7.0 0.00 0.04 0.04 81 1014.0
20260506191539 62 182 1.7 5.2 0.00 0.04 0.04 80 1013.9
20260506190040 62 173 0.0 6.1 0.00 0.04 0.04 80 1013.7
20260506184541 62 175 0.0 3.5 0.00 0.04 0.04 80 1013.4
20260506183045 62 155 0.0 4.3 0.00 0.04 0.04 79 1013.3
20260506181537 63 180 0.0 4.3 0.00 0.04 0.04 79 1013.3
20260506180036 63 172 2.6 8.7 0.00 0.04 0.04 79 1013.2
20260506174536 64 180 2.6 8.7 0.00 0.04 0.04 80 1013.1
20260506173136 64 184 0.9 4.3 0.00 0.04 0.04 80 1013.3
20260506171541 64 165 0.0 6.1 0.00 0.04 0.04 80 1012.9
20260506170038 65 178 1.7 8.7 0.00 0.04 0.04 79 1012.9
20260506164543 65 180 4.3 9.6 0.00 0.04 0.04 78 1012.9
20260506163032 66 155 3.5 12.2 0.00 0.04 0.04 77 1012.9
20260506161539 68 165 5.2 10.4 0.00 0.04 0.04 76 1013.0
20260506160042 68 142 1.7 6.1 0.00 0.04 0.04 73 1012.9
20260506154532 67 195 1.7 7.8 0.00 0.04 0.04 75 1013.0
20260506153029 68 165 3.5 8.7 0.00 0.04 0.04 72 1013.0
20260506151535 68 181 4.3 8.7 0.00 0.04 0.04 73 1013.0
20260506150032 68 281 1.7 6.1 0.00 0.04 0.04 74 1013.0
20260506144528 68 253 3.5 8.7 0.00 0.04 0.04 71 1013.0
20260506143041 66 190 2.6 7.8 0.00 0.04 0.04 72 1013.0
20260506141526 66 173 4.3 13.9 0.00 0.04 0.04 69 1012.9
20260506140033 69 196 6.1 13.0 0.00 0.04 0.04 66 1012.8
20260506134523 70 182 4.3 10.4 0.00 0.04 0.04 66 1013.1
20260506133025 70 119 4.3 8.7 0.00 0.04 0.04 66 1013.3
20260506131525 69 185 2.6 10.4 0.00 0.04 0.04 68 1013.6
20260506130024 68 186 5.2 11.3 0.00 0.04 0.04 68 1013.7
20260506124518 67 193 4.3 9.6 0.00 0.04 0.04 68 1013.8
20260506123018 67 153 3.5 11.3 0.00 0.04 0.04 68 1013.8
20260506121516 67 190 1.7 7.0 0.00 0.04 0.04 67 1013.7
20260506120015 66 179 5.2 9.6 0.00 0.04 0.04 65 1013.7
20260506114520 67 223 4.3 10.4 0.00 0.04 0.04 63 1013.9
20260506113014 69 181 7.0 11.3 0.00 0.04 0.04 60 1013.7
20260506111512 69 136 4.3 9.6 0.00 0.04 0.04 62 1013.9
20260506110012 67 211 3.5 10.4 0.00 0.04 0.04 62 1013.9
20260506104510 67 178 3.5 20.0 0.00 0.04 0.04 65 1013.7
20260506103014 68 186 2.6 13.0 0.00 0.04 0.04 68 1013.7
20260506101506 67 182 5.2 11.3 0.00 0.04 0.04 70 1013.9
20260506100004 66 175 5.2 11.3 0.00 0.04 0.04 72 1013.9
20260506094605 65 175 4.3 8.7 0.00 0.04 0.04 76 1014.0
20260506093105 64 146 4.3 10.4 0.00 0.04 0.04 76 1014.2